[[{"header":{"parameterUnit":"m.s-1","parameterCategory":1,"la1":30.2991,"la2":30.254,"lo1":-89.0895,"lo2":-89.0444,"dy":0.0017,"dx":0.0017,"nx":28,"ny":28,"refTime":"2024-07-09T09:00:00:Z","depth":0,"parameterNumber":2,"parameterNumberName":"U-component_of_WINDS"},"data":[0,0,0,0,0,0,0,0,0,0,0,0,0,0,0,0,0,0,0,0,0,0,0,0,0,0,0,0,0,0,0,0,0,0,0,0,0,0,0,0,0,0,0,0,0,0,0,0,0,0,0,0,0,0,0,0,0,0,4.701,4.7012,0,4.7193,4.7195,4.7197,4.7159,4.7155,4.7152,4.7149,4.7336,4.7343,4.7351,0,0,0,0,0,0,0,0,0,0,0,0,0,4.6625,4.6632,4.701,4.7012,4.7015,4.7192,4.7195,4.7197,4.7159,4.7155,4.7151,4.7147,4.7333,4.7342,4.7352,0,0,0,0,0,0,0,0,0,0,0,0,0,4.6799,4.6635,4.701,4.7017,4.7019,4.7192,4.7195,4.7198,4.716,4.7155,4.715,4.7145,4.733,4.7342,4.7354,4.753,0,0,4.7391,4.7396,0,0,0,0,0,0,0,0,4.6789,4.6813,4.7014,4.7017,4.702,4.7148,4.7128,4.7309,4.7161,4.7107,4.7149,4.7143,4.7277,4.7293,4.7339,4.7539,4.7547,4.7392,4.7399,4.7404,4.7408,0,0,0,0,0,0,0,4.6777,4.6805,4.7082,4.7017,4.702,4.701,4.7029,4.7162,4.7218,4.7111,4.7109,4.7131,4.7278,4.7327,4.7343,4.755,4.7391,4.7402,4.741,4.7415,4.7899,4.7904,0,0,0,0,0,0,4.6762,4.6795,4.7076,4.7088,4.6889,4.7021,4.7042,4.7112,4.7217,4.7228,4.7135,4.7128,4.7309,4.7329,4.7349,4.7559,4.7404,4.7416,4.7423,4.7893,4.79,4.7906,0,0,0,0,0,0,4.6754,4.6788,4.7069,4.6941,4.6976,4.7033,4.7111,4.7118,4.7167,4.7235,4.7244,4.7175,4.7306,4.7332,4.7484,4.7565,4.7421,4.7432,4.7887,4.7895,4.7903,4.7983,0,0,0,0,0,0,4.6743,4.6785,4.6854,4.6943,4.6983,4.7202,4.7116,4.7125,4.7188,4.7181,4.7275,4.7285,4.7304,4.7466,4.7496,4.7579,4.7442,4.7879,4.789,4.79,4.7973,4.7993,4.8009,0,0,0,0,0,4.673,4.687,4.6857,4.6892,4.707,4.7207,4.723,4.7248,4.7195,4.7263,4.7306,4.7282,4.7552,4.7482,4.7516,4.7604,4.7874,4.7887,4.7899,4.7965,4.7989,4.8009,0,0,0,0,0,0,4.679,4.6882,4.6869,4.7042,4.7117,4.72,4.7287,4.7274,4.7365,4.7355,4.7373,4.7395,4.7549,4.7592,4.7513,4.7777,4.7705,4.7725,4.7744,4.7767,4.7785,4.777,4.7452,0,0,0,0,0,4.6823,4.6928,4.7002,4.7148,4.7186,4.723,4.7291,4.7298,4.7376,4.7408,4.7462,4.7538,4.7639,4.7706,4.7803,4.7979,4.7997,4.8056,4.8074,4.8089,4.8105,4.8197,4.8223,4.7947,4.7947,4.7946,0,0,4.6893,4.6956,4.7021,4.7161,4.722,4.7326,4.7257,4.7374,4.7451,4.7425,4.7571,4.7613,4.77,4.7863,4.7938,4.7904,4.8185,4.8105,4.8116,4.8124,4.8213,4.8239,4.8262,4.7955,4.7954,4.7952,0,0,4.7074,4.7134,4.726,4.7319,4.7409,4.7437,4.7467,4.7552,4.7579,4.7726,4.7707,4.78,4.7975,4.8036,4.809,4.8291,4.8271,4.8322,4.8417,4.8506,4.8528,4.8547,4.8615,4.8639,4.8338,4.8339,4.8339,0,4.715,4.731,4.7326,4.7443,4.7504,4.7484,4.761,4.7667,4.7784,4.7825,4.7786,4.8002,4.806,4.8235,4.8283,4.8329,4.8362,4.8311,4.8523,4.8543,4.8561,4.8626,4.8652,4.8344,4.8343,4.8343,4.8342,0,4.7396,4.7507,4.7598,4.7709,4.778,4.7901,4.7935,4.8004,4.8005,4.8037,4.8184,4.8252,4.836,4.8403,4.8406,4.8578,4.8553,4.8519,4.8446,4.8592,4.8653,4.8679,4.8352,4.835,4.8348,4.8347,0,0,4.7621,4.7738,4.7771,4.7819,4.7915,4.8,4.8119,4.8225,4.8282,4.8363,4.8461,4.8609,4.8575,4.8637,4.8646,4.8725,4.8874,4.868,4.8682,4.871,4.9064,4.9087,4.9116,4.8862,4.8867,4.8871,4.9055,0,4.7808,4.8017,4.8034,4.8222,4.8322,4.8304,4.8406,4.8475,4.8508,4.8597,4.8632,4.8735,4.8686,4.8722,4.8799,4.884,4.8945,4.8827,4.8951,4.8955,4.8927,4.9149,4.9175,4.9345,4.908,4.9084,4.9087,0,4.8055,4.814,4.8338,4.8415,4.8458,4.8551,4.8646,4.8733,4.8809,4.8827,4.8894,4.8891,4.9011,4.8935,4.9099,4.9018,4.907,4.9097,4.9104,4.9114,4.9028,4.9161,4.9401,4.9425,4.9125,4.9122,4.912,0,4.8194,4.8359,4.8497,4.854,4.8636,4.87,4.8743,4.8814,4.8875,4.8959,4.8998,4.9096,4.9149,4.9223,4.9246,4.9189,4.9407,4.9335,4.9423,4.9422,4.9468,4.9464,4.9716,4.9507,4.9506,4.9506,4.9505,0,4.8399,4.852,4.856,4.8645,4.8779,4.8797,4.8928,4.8967,4.903,4.9121,4.9112,4.9197,4.9223,4.9312,4.9331,4.9461,4.9486,4.9501,4.9504,4.9501,4.9498,4.9533,4.9521,4.9513,4.9511,4.951,4.9509,0,4.8577,4.861,4.8758,4.8835,4.8857,4.8952,4.9017,4.9098,4.9128,4.9242,4.927,4.9317,4.9421,4.9451,4.9577,4.9589,4.9741,4.9735,4.9715,4.9714,4.9799,4.979,5.008,5.0117,4.9887,4.9889,4.9891,0,4.8704,4.8796,4.8882,4.8942,4.8987,4.9084,4.9145,4.9165,4.923,4.9322,4.939,4.9493,4.9576,4.9743,4.9787,4.9882,4.9876,4.9971,4.9891,4.9882,4.9873,4.9866,4.9874,4.9986,4.9988,4.999,4.9992,0,4.8926,4.8936,4.9026,4.912,4.9193,4.9268,4.9341,4.939,4.942,4.9492,4.9598,4.9662,4.9789,4.9889,4.9985,5.0028,5.0014,5.0017,5.0042,5.0037,5.002,5.0027,4.9753,5.001,5.0008,5.0007,5.0006,5.0005,4.908,4.9159,4.9231,4.9329,4.9385,4.9452,4.953,4.9569,4.9657,4.9761,4.9768,4.9882,4.9953,5.008,5.0127,5.0215,5.0187,5.0224,5.0233,5.0241,5.0246,5.0009,5.0233,5.0233,5.0232,5.0232,5.0231,0,4.9298,4.9342,4.9433,4.9533,4.9609,4.959,4.9668,4.9733,4.9833,4.99,4.9981,5.01,5.0197,5.0249,5.0345,5.0405,5.0401,5.0429,5.0423,5.0432,5.0267,5.0235,5.0431,5.043,5.043,5.043,5.043,5.043,4.942,4.9551,4.957,4.9728,4.9772,4.9882,4.9928,4.9988,5.0041,5.0175,5.0255,5.0288,5.0348,5.0447,5.0534,5.0547,5.0581,5.0612,5.0621,5.0465,5.0445,5.0425,5.0394,5.062,5.0621,5.0778,5.078,5.0781]},{"header":{"parameterUnit":"m.s-1","parameterCategory":1,"la1":30.2991,"la2":30.254,"lo1":-89.0895,"lo2":-89.0444,"dy":0.0017,"dx":0.0017,"nx":28,"ny":28,"refTime":"2024-07-09T09:00:00:Z","depth":0,"parameterNumber":3,"parameterNumberName":"V-component_of_WINDS"},"data":[0,0,0,0,0,0,0,0,0,0,0,0,0,0,0,0,0,0,0,0,0,0,0,0,0,0,0,0,0,0,0,0,0,0,0,0,0,0,0,0,0,0,0,0,0,0,0,0,0,0,0,0,0,0,0,0,0,0,1.9007,1.9008,0,1.9057,1.9058,1.9058,1.9008,1.9006,1.9004,1.9003,1.9052,1.9055,1.9059,0,0,0,0,0,0,0,0,0,0,0,0,0,1.8866,1.8869,1.9007,1.9008,1.9008,1.9057,1.9058,1.9058,1.9009,1.9006,1.9004,1.9002,1.9051,1.9055,1.9059,0,0,0,0,0,0,0,0,0,0,0,0,0,1.8923,1.887,1.9007,1.8989,1.8988,1.9057,1.9058,1.9059,1.9009,1.9006,1.9003,1.9001,1.905,1.9055,1.9059,1.9147,0,0,1.9074,1.9076,0,0,0,0,0,0,0,0,1.8919,1.8928,1.8991,1.8991,1.899,1.9024,1.9026,1.9088,1.901,1.9001,1.9003,1.8999,1.9045,1.905,1.9066,1.915,1.9152,1.9074,1.9077,1.9079,1.908,0,0,0,0,0,0,0,1.8916,1.8925,1.9027,1.8992,1.8991,1.8978,1.8983,1.9038,1.9039,1.9002,1.8998,1.9005,1.9044,1.9061,1.9067,1.9152,1.9074,1.9078,1.9081,1.9083,1.9309,1.9312,0,0,0,0,0,0,1.8914,1.8922,1.9025,1.9028,1.8947,1.8983,1.8988,1.9016,1.9038,1.9039,1.9007,1.9002,1.9055,1.9061,1.9068,1.9172,1.9079,1.9083,1.9086,1.9306,1.931,1.9313,0,0,0,0,0,0,1.8911,1.8924,1.9023,1.8974,1.8986,1.8989,1.902,1.9018,1.9035,1.9043,1.9042,1.9025,1.9053,1.9061,1.9128,1.9173,1.9086,1.909,1.9302,1.9307,1.9312,1.9381,0,0,0,0,0,0,1.8907,1.8923,1.8957,1.8976,1.8989,1.9083,1.9022,1.9021,1.9044,1.9038,1.9059,1.906,1.9051,1.9121,1.9132,1.9178,1.9094,1.9298,1.9304,1.931,1.9375,1.9387,1.9398,0,0,0,0,0,1.8902,1.8975,1.8959,1.8972,1.9032,1.9086,1.9093,1.9082,1.9048,1.9082,1.9086,1.9059,1.9166,1.9128,1.9141,1.9188,1.9295,1.9303,1.931,1.9369,1.9385,1.9398,0,0,0,0,0,0,1.8961,1.8977,1.896,1.904,1.9062,1.9077,1.912,1.91,1.9131,1.9124,1.9109,1.9114,1.9184,1.9192,1.915,1.9274,1.9225,1.9235,1.9266,1.9281,1.9293,1.9289,1.9098,0,0,0,0,0,1.8983,1.9027,1.9038,1.9107,1.9119,1.9118,1.9141,1.913,1.9152,1.9161,1.917,1.9192,1.923,1.9256,1.9291,1.9375,1.9378,1.9414,1.9426,1.9435,1.9444,1.9488,1.9504,1.9337,1.9337,1.9337,0,0,1.903,1.9044,1.9072,1.912,1.9135,1.918,1.9126,1.9175,1.9208,1.9168,1.9232,1.9239,1.9262,1.9337,1.937,1.9346,1.9491,1.9444,1.9452,1.9456,1.9497,1.9513,1.9527,1.9342,1.9341,1.934,0,0,1.9138,1.9153,1.9212,1.9229,1.9253,1.9252,1.9266,1.9284,1.9288,1.9351,1.9322,1.9359,1.9426,1.9443,1.9461,1.9573,1.9549,1.9585,1.9647,1.969,1.9703,1.9715,1.9755,1.9769,1.9594,1.9594,1.9594,0,1.9193,1.9259,1.9246,1.9297,1.9318,1.9284,1.9344,1.936,1.9395,1.941,1.9382,1.9464,1.9477,1.9556,1.9583,1.9598,1.9613,1.9583,1.9703,1.9714,1.9725,1.9762,1.9778,1.9598,1.9597,1.9597,1.9597,0,1.9325,1.9371,1.9416,1.9451,1.9477,1.9532,1.9526,1.9554,1.954,1.9541,1.9605,1.9619,1.9657,1.9674,1.9662,1.9751,1.9735,1.9705,1.9656,1.9745,1.978,1.9795,1.9604,1.9602,1.9601,1.96,0,0,1.9473,1.9498,1.9515,1.953,1.9553,1.9588,1.9641,1.9678,1.9702,1.9726,1.977,1.9826,1.9798,1.9818,1.9807,1.9845,1.9932,1.981,1.981,1.9832,2.003,2.0052,2.0069,1.9916,1.9918,1.9921,2.0028,0,1.9581,1.9674,1.9662,1.9751,1.9793,1.976,1.9806,1.9825,1.9827,1.9861,1.9863,1.9903,1.9864,1.9875,1.9911,1.9914,1.9971,1.9906,1.9956,1.9958,1.9952,2.0088,2.0112,2.0212,2.0041,2.0044,2.0045,0,1.972,1.975,1.9843,1.9859,1.9876,1.9918,1.995,1.9984,2.0004,2.0002,2.0024,2.0005,2.0057,2.0006,2.0076,2.0032,2.0051,2.0056,2.0059,2.0064,2.0007,2.0096,2.0244,2.0259,2.0067,2.0065,2.0064,0,1.9819,1.9881,1.9945,1.9958,1.9979,2.0009,2.0018,2.0035,2.0058,2.0086,2.01,2.0133,2.0151,2.0177,2.0167,2.0131,2.0239,2.0188,2.0239,2.0239,2.0264,2.0263,2.0418,2.0276,2.0276,2.0275,2.0275,0,1.9941,1.9999,1.9989,2.0028,2.0092,2.0077,2.014,2.0145,2.0161,2.0199,2.0173,2.0209,2.0194,2.023,2.0222,2.0281,2.029,2.0289,2.0287,2.0292,2.0292,2.0305,2.0298,2.0279,2.0279,2.0278,2.0277,0,2.0062,2.0058,2.0125,2.0138,2.0143,2.0189,2.02,2.0236,2.0235,2.0284,2.0295,2.0293,2.0333,2.0326,2.037,2.0365,2.0439,2.0428,2.0433,2.043,2.0482,2.0477,2.065,2.0672,2.0516,2.0518,2.0519,0,2.0141,2.0185,2.0203,2.0227,2.0239,2.0278,2.0301,2.0288,2.0312,2.0337,2.037,2.0408,2.0437,2.0503,2.0505,2.0538,2.0527,2.0586,2.0532,2.0536,2.0528,2.0526,2.053,2.0597,2.0598,2.06,2.0601,0,2.0281,2.0276,2.0311,2.0344,2.0372,2.0397,2.042,2.0441,2.0429,2.0458,2.0499,2.0522,2.0566,2.0604,2.0635,2.0643,2.062,2.0618,2.0631,2.0637,2.0639,2.0638,2.0462,2.0614,2.0613,2.0612,2.0611,2.0611,2.0383,2.042,2.0439,2.0477,2.0493,2.0514,2.0549,2.0552,2.0586,2.0622,2.0611,2.0657,2.0674,2.0713,2.0725,2.076,2.0739,2.0758,2.0763,2.0769,2.0775,2.0633,2.0766,2.0765,2.0765,2.0765,2.0764,0,2.0522,2.0532,2.0567,2.06,2.063,2.0606,2.0629,2.0655,2.0697,2.0715,2.0744,2.079,2.0826,2.0831,2.0864,2.0891,2.0882,2.0901,2.0899,2.0901,2.0792,2.0777,2.0908,2.0908,2.0908,2.0908,2.0908,2.0908,2.0598,2.0659,2.0656,2.0724,2.0733,2.0779,2.0794,2.0813,2.0828,2.0881,2.0911,2.0913,2.0926,2.0959,2.0991,2.0991,2.1004,2.1028,2.1024,2.0923,2.0909,2.0895,2.0881,2.1031,2.1031,2.1129,2.113,2.1131]}]]